Hourly Data Report for October 19, 2017

All times are specified in Local Standard Time (LST). Add 1 hour to adjust for Daylight Saving Time where and when it is observed.

PANGNIRTUNG
NUNAVUT

66°08'36.300" N
65°42'40.500" W
22.60 m
2403049
71826
WXP

Download Data

Hourly Data (October 2017)
Hourly Data Report for October 19, 2017
Temp Definition
°C
Dew Point Temp Definition
°C
Rel Hum Definition
%
Wind Dir Definition
10's deg

Wind Spd Definition
km/h
Visibility Definition
km
Stn Press Definition
kPa
Hmdx Definition


Wind Chill Definition


Weather Definition


TIME
00:00 -6.6 -9.7 79 29 2   100.45   -8 LegendNANA
01:00 -6.6 -9.4 81 13 2   100.49   -8 LegendNANA
02:00 -6.9 -9.7 80 21 2   100.51   -8 LegendNANA
03:00 -7.0 -9.5 82 22 5   100.53   -10 LegendNANA
04:00 -7.5 -10.0 83 25 4   100.55   -10 LegendNANA
05:00 -7.4 -10.4 79 14 11   100.52   -12 LegendNANA
06:00 -8.0 -10.6 81 12 13   100.55   -14 LegendNANA
07:00 -7.3 -10.2 79 13 7   100.59   -11 LegendNANA
08:00 -7.7 -10.3 81 13 8   100.59   -12 LegendNANA
09:00 -7.9 -11.0 78 12 9   100.58   -12 LegendNANA
10:00 -7.6 -11.0 76 12 7   100.53   -11 LegendNANA
11:00 -7.4 -10.9 76 12 6   100.50   -11 LegendNANA
12:00 -7.4 -10.9 76 23 7   100.51   -11 LegendNANA
13:00 -7.6 -11.1 76 23 3   100.51   -9 LegendNANA
14:00 -7.1 -10.9 74 8 2   100.53   -8 LegendNANA
15:00 -7.3 -10.8 76 15 14   100.52   -13 LegendNANA
16:00 -7.9 -11.7 74 11 16   100.53   -14 LegendNANA
17:00 -7.6 -11.0 76 12 20   100.55   -15 LegendNANA
18:00 -7.6 -10.8 77 11 20   100.55   -15 LegendNANA
19:00 -6.3 -10.6 71 16 23   100.56   -14 LegendNANA
20:00 -6.9 -11.2 71 12 14   100.56   -13 LegendNANA
21:00 -8.3 -11.8 76 9 11   100.55   -14 LegendNANA
22:00 -7.8 -11.8 73 8 8   100.56   -12 LegendNANA
23:00 -7.3 -12.0 69 7 4   100.56   -9 LegendNANA

Notes on Data Quality.

Legend

  • E = Estimated
  • M = Missing
  • NA = Not Available
  • ‡ = Partner data that is not subject to review by the National Climate Archives
Date modified: